Flag for U.S.A. Weather past 2 weeks in Sandpoint, Idaho, U.S.A.

32 °F


Feels Like: 20 °F
Forecast: 16 / 30 °F
Wind: 21 mph from Northeast

Location: Sandpoint Airport

Current Time: Nov 24, 2015 at 8:56:57 PM

Latest Report: Nov 24, 2015 at 7:55 PM

Visibility: 10 mi

Pressure: 29.98 "Hg (27.69 "Hg at 636m altitude)

Humidity: 60%

Dew point: 19 °F

Location of SandpointLocation

Historic Weather in Sandpoint — Graph


Sandpoint temperature yesterday

Maximum temperature yesterday: 37 °F (at 1:55 PM)
Minimum temperature yesterday: 21 °F (at 5:55 AM)
Average temperature yesterday: 29 °F

Past Weeks' High & Low Weather Summary

High52 °F (Nov 13, 3:55 PM)100% (Nov 9, 10:35 PM)30.54 "Hg (Nov 9, 10:35 PM)
Low19 °F (Nov 22, 3:15 AM)33% (Nov 18, 12:55 PM)29.23 "Hg (Nov 17, 6:55 PM)
Average35 °F86%30.00 "Hg
* Reported Nov 9 7:35 PM — Nov 24 7:15 PM, Sandpoint, Weather by CustomWeather, © 2015

Note: Actual official high and low records may vary slightly from our data, if they occured in-between our weather recording intervals... More about our weather records


Sandpoint weather history for previous 24 hours

Time TempWeatherWind HumidityBarometerVisibility
7:15 PM
Tue, Nov 24
32 °FPassing clouds.22 mph64%29.96 "Hg10 mi
6:55 PM32 °FPassing clouds.21 mph64%29.96 "Hg10 mi
6:35 PM32 °FClear.22 mph64%29.95 "Hg10 mi
6:15 PM32 °FClear.21 mph64%29.94 "Hg10 mi
5:55 PM32 °FClear.21 mph69%29.93 "Hg10 mi
5:35 PM32 °FClear.24 mph69%29.92 "Hg10 mi
5:15 PM32 °FPassing clouds.22 mph69%29.91 "Hg10 mi
3:55 PM32 °FOvercast.22 mph80%29.88 "Hg10 mi
3:35 PM34 °FMore clouds than sun.25 mph75%29.87 "Hg10 mi
3:15 PM34 °FBroken clouds.24 mph75%29.86 "Hg10 mi
2:35 PM34 °FMostly cloudy.22 mph81%29.83 "Hg10 mi
2:15 PM34 °FCloudy.22 mph81%29.82 "Hg10 mi
1:55 PM34 °FLight rain. Mostly cloudy.24 mph81%29.81 "Hg10 mi
1:35 PM34 °FBroken clouds.25 mph87%29.80 "Hg10 mi
12:55 PM34 °FLight rain. Mostly cloudy.23 mph93%29.78 "Hg7 mi
12:35 PM34 °FLight snow. Mostly cloudy.25 mph93%29.77 "Hg7 mi
12:15 PM34 °FDrizzle. Overcast.23 mph93%29.76 "Hg7 mi
11:55 AM32 °FLight rain. More clouds than sun.18 mph100%29.76 "Hg4 mi
11:35 AM32 °FLight snow. Mostly cloudy.17 mph100%29.75 "Hg2 mi
11:15 AM32 °FLight snow. Mostly cloudy.13 mph100%29.75 "Hg1 mi
10:55 AM32 °FLight snow. Low clouds.13 mph100%29.75 "Hg1 mi
10:35 AM32 °FLight snow. Scattered clouds.10 mph100%29.75 "Hg2 mi
9:55 AM32 °FLight snow. Scattered clouds.5 mph100%29.75 "Hg1 mi
9:35 AM32 °FLight snow. Low clouds.No wind100%29.74 "Hg1 mi
9:15 AM32 °FLight snow. Low clouds.No wind100%29.74 "Hg1 mi
8:55 AM32 °FLight snow. Partly sunny.No wind100%29.74 "Hg1 mi
8:35 AM32 °FLight snow. Low clouds.No wind100%29.73 "Hg1 mi
7:55 AM32 °FLight snow. Low clouds.No wind100%29.72 "Hg1 mi
7:35 AM32 °FLight snow. Partly sunny.No wind100%29.71 "Hg1 mi
7:15 AM32 °FLight snow. Partly sunny.No wind100%29.71 "Hg2 mi
6:55 AM32 °FLight snow. Passing clouds.No wind100%29.71 "Hg2 mi
6:35 AM32 °FLight snow. Passing clouds.No wind100%29.71 "Hg2 mi
6:15 AM32 °FLight snow. Passing clouds.No wind100%29.71 "Hg2 mi
5:55 AM32 °FLight snow. Low clouds.No wind100%29.70 "Hg2 mi
5:35 AM32 °FLight snow. Passing clouds.No wind100%29.70 "Hg2 mi
5:15 AM32 °FLight snow. Partly cloudy.No wind100%29.70 "Hg2 mi
4:55 AM32 °FLight snow. Partly cloudy.3 mph100%29.71 "Hg3 mi
4:35 AM32 °FLight snow. Passing clouds.No wind100%29.71 "Hg3 mi
4:15 AM32 °FLight snow. Overcast.5 mph100%29.71 "Hg3 mi
3:55 AM32 °FLight snow. Overcast.3 mph93%29.71 "Hg4 mi
3:35 AM32 °FLight snow. Overcast.No wind93%29.71 "Hg4 mi
3:15 AM32 °FLight snow. Mostly cloudy.No wind93%29.71 "Hg7 mi
2:55 AM32 °FMostly cloudy.No wind93%29.71 "Hg10 mi
2:35 AM32 °FOvercast.No wind93%29.71 "Hg10 mi
2:15 AM32 °FOvercast.No wind93%29.71 "Hg10 mi
1:55 AM32 °FOvercast.No wind87%29.71 "Hg7 mi
1:35 AM32 °FOvercast.3 mph87%29.71 "Hg10 mi
1:15 AM32 °FOvercast.No wind93%29.71 "Hg7 mi
12:55 AM30 °FMostly cloudy.No wind100%29.70 "Hg10 mi
12:35 AM30 °FMostly cloudy.No wind93%29.70 "Hg10 mi
12:15 AM30 °FOvercast.No wind100%29.71 "Hg10 mi
11:55 PM
Mon, Nov 23
30 °FMostly cloudy.No wind93%29.71 "Hg10 mi
11:35 PM30 °FMostly cloudy.No wind93%29.71 "Hg10 mi
10:55 PM30 °FPassing clouds.No wind93%29.71 "Hg10 mi
10:35 PM30 °FClear.No wind93%29.71 "Hg10 mi
10:15 PM30 °FPassing clouds.No wind93%29.71 "Hg7 mi
9:55 PM30 °FPassing clouds.No wind93%29.71 "Hg10 mi
9:35 PM30 °FOvercast.No wind93%29.71 "Hg10 mi
8:55 PM30 °FOvercast.No wind93%29.71 "Hg10 mi
8:35 PM30 °FOvercast.No wind93%29.72 "Hg10 mi
Weather by CustomWeather, © 2015

See weather overviewHow to use our weather pages